Simultaneous Nadir Overpasses (SNOs) Predictions

Prediction of SNOs between LANDSAT-8 and METOP-B Satellite Orbit:

Table of predicted SNOs for the next 14.0 days since TLE Epoch: 8/1/2020
Index Date (LANDSAT-8) Time (LANDSAT-8) Lat,Lon (LANDSAT-8) SZA (LANDSAT-8 ) Date (METOP-B) Time (METOP-B) Lat,Lon (METOP-B) SZA (METOP-B ) Distance(km) Time Diff (sec)
1 08/03/2020 21:38:02 -81.16, 76.17 113.99 08/03/2020 21:37:13 -81.17, 76.29 113.99 2.21 49
2 08/03/2020 22:27:27 81.19,-115.72 66.09 08/03/2020 22:27:52 81.19,-115.66 66.11 1.00 25
3 08/06/2020 17:12:17 -81.18, 142.92 113.17 08/06/2020 17:11:33 -81.18, 143.05 113.18 2.16 44
4 08/06/2020 18:01:43 81.18, -49.37 66.85 08/06/2020 18:02:13 81.19, -49.30 66.88 1.37 30
5 08/09/2020 12:46:32 -81.18,-150.72 112.37 08/09/2020 12:45:53 -81.18,-150.59 112.38 2.21 39
6 08/09/2020 13:35:57 81.20, 17.33 67.70 08/09/2020 13:36:32 81.20, 17.44 67.73 1.90 35
7 08/12/2020 08:20:48 -81.17, -84.38 111.54 08/12/2020 08:20:14 -81.18, -84.24 111.54 2.53 34
8 08/12/2020 09:10:13 81.19, 83.64 68.53 08/12/2020 09:10:53 81.20, 83.78 68.56 2.48 40
